Location: Newark
(0.5300°S, 127.4800°E)
Time: 01:20:11
(UTC+00:00)

Transit 4A - Pass Details

Date: 28 September 2019
Orbit: 866 x 978 km, 66.8° (Epoch: 13 October)

Event Time Altitude Azimuth Distance (km) Brightness Sun altitude
Rises 11:47:23 0° 337° (NNW) 3,468 11.1 -36.6°
Reaches altitude 10° 11:49:53 10° 335° (NNW) 2,520 10.3 -37.2°
Enters shadow 11:50:15 12° 335° (NNW) 2,384 10.2 -37.3°
